This is the latest recevied weather packets stored in our database for station/object OM7ABC-17. If no packets are shown the sender has not sent any weather packets the latest 10 day(s).
| Time | Temp. | Humidity | Pressure | Rain* | Wind** | Luminosity | Snow |
|---|---|---|---|---|---|---|---|
| 1777459269 | 23.33° C | 25% | 998 hPa | - | - | - | - |
| 1777457469 | 23.33° C | 26% | 998.5 hPa | - | - | - | - |
| 1777455668 | 23.33° C | 25% | 998.8 hPa | - | - | - | - |
| 1777454768 | 23.33° C | 26% | 999.1 hPa | - | - | - | - |
| 1777453868 | 22.78° C | 26% | 999.1 hPa | - | - | - | - |
| 1777452968 | 22.78° C | 26% | 999.3 hPa | - | - | - | - |
| 1777452068 | 22.22° C | 26% | 999.3 hPa | - | - | - | - |
| 1777451168 | 22.22° C | 26% | 999.4 hPa | - | - | - | - |
| 1777450267 | 21.67° C | 26% | 999.4 hPa | - | - | - | - |
| 1777449376 | 21.11° C | 26% | 999.5 hPa | - | - | - | - |
| 1777447576 | 20.56° C | 26% | 999.7 hPa | - | - | - | - |
| 1777446675 | 20.56° C | 27% | 999.7 hPa | - | - | - | - |
| 1777445775 | 20° C | 27% | 999.7 hPa | - | - | - | - |
| 1777444875 | 20° C | 27% | 999.8 hPa | - | - | - | - |
| 1777443975 | 19.44° C | 27% | 1000 hPa | - | - | - | - |
| 1777443075 | 19.44° C | 27% | 1000 hPa | - | - | - | - |
| 1777442175 | 18.89° C | 27% | 999.9 hPa | - | - | - | - |
| 1777441275 | 18.89° C | 27% | 999.9 hPa | - | - | - | - |
| 1777440375 | 18.89° C | 27% | 999.8 hPa | - | - | - | - |
| 1777439475 | 18.89° C | 27% | 999.8 hPa | - | - | - | - |
| 1777438575 | 18.89° C | 27% | 999.8 hPa | - | - | - | - |
| 1777437675 | 18.89° C | 27% | 999.7 hPa | - | - | - | - |
| 1777436775 | 18.89° C | 27% | 999.5 hPa | - | - | - | - |
| 1777435875 | 19.44° C | 27% | 999.4 hPa | - | - | - | - |
| 1777433175 | 19.44° C | 27% | 998.9 hPa | - | - | - | - |
* Rain since midnight (hover to see other rain measurements)
** Current wind speed in m/s (hover to see current wind gust speed)